Flag for Austria Weather past 2 weeks in Bruck an der Leitha, Lower Austria, Austria

Now
47 °F

Passing clouds.


Feels Like: 42 °F
Forecast: 38 / 46 °F
Wind: 12 mph from West

Location: Wien / Schwechat-Flughafen

Current Time: Apr 1, 2015 at 2:54:33 AM

Latest Report: Apr 1, 2015 at 2:00 AM


Visibility: 31 mi

Pressure: 29.73 "Hg

Humidity: 55%

Dew point: 31 °F

Location of Bruck an der LeithaLocation

Historic Weather in Bruck an der Leitha — Graph

°F

Bruck an der Leitha temperature yesterday

Maximum temperature yesterday: 62 °F (at 3:00 PM)
Minimum temperature yesterday: 39 °F (at 9:00 AM)
Average temperature yesterday: 47 °F

Past Weeks' High & Low Weather Summary

 TemperatureHumidityPressure
High63 °F (Mar 26, 5:00 PM)90% (Mar 20, 5:00 AM)30.54 "Hg (Mar 20, 5:00 AM)
Low27 °F (Mar 20, 5:00 AM)32% (Mar 18, 3:00 PM)29.41 "Hg (Mar 31, 3:00 PM)
Average46 °F65%30.00 "Hg
* Reported Midnight between Mar 16 and Mar 17 — Apr 1 1:00 AM, Bruck an der Leitha, Weather by CustomWeather, © 2015

Note: Actual official high and low records may vary slightly from our data, if they occured in-between our weather recording intervals... More about our weather records

Advertising

Bruck an der Leitha weather history for previous 24 hours

 ConditionsComfort  
Time TempWeatherWind HumidityBarometerVisibility
1:00 AM
Wed, Apr 1
47 °FOvercast.12 mph57%29.74 "Hg31 mi
12:00 AM48 °FPassing clouds.15 mph56%29.70 "Hg31 mi
10:00 PM
Tue, Mar 31
49 °FOvercast.13 mph61%29.67 "Hg31 mi
9:00 PM48 °FOvercast.10 mph78%29.63 "Hg31 mi
8:00 PM51 °FOvercast.9 mph71%29.57 "Hg28 mi
7:00 PM51 °FSprinkles. Overcast.13 mph82%29.55 "Hg2 mi
6:00 PM56 °FRain showers. Overcast.13 mph62%29.47 "Hg25 mi
5:00 PM56 °FOvercast.12 mph68%29.44 "Hg28 mi
4:00 PM58 °FOvercast.9 mph66%29.44 "Hg19 mi
3:00 PM62 °FOvercast.14 mph49%29.41 "Hg22 mi
2:00 PM57 °FOvercast.8 mph58%29.44 "Hg25 mi
1:00 PM53 °FOvercast.12 mph65%29.47 "Hg22 mi
12:00 PM47 °FLight rain. Overcast.13 mph78%29.50 "Hg22 mi
11:00 AM44 °FLight rain. Overcast.15 mph79%29.57 "Hg28 mi
10:00 AM40 °FLight rain. Overcast.13 mph90%29.62 "Hg8 mi
9:00 AM39 °FHeavy rain. Overcast.14 mph87%29.69 "Hg5 mi
8:00 AM41 °FHeavy rain. Overcast.7 mph79%29.75 "Hg3 mi
7:00 AM40 °FOvercast.5 mph76%29.80 "Hg22 mi
6:00 AM42 °FPassing clouds.N/A66%29.80 "Hg28 mi
4:00 AM40 °FOvercast.5 mph72%29.88 "Hg25 mi
3:00 AM41 °FOvercast.6 mph67%29.91 "Hg28 mi
2:00 AM41 °FPassing clouds.6 mph71%29.90 "Hg28 mi
Weather by CustomWeather, © 2015

See weather overviewHow to use our weather pages